User: anonymous   Login
Location: Ammerl�gen
(47.2167°N, 9.6000°E)
Time: 03:29:28
(UTC+00:00)
Language:

LilacSat-2 - Orbit

View from above orbital plane
View from above orbital plane
View from above satellite
View from above satellite

Ground track
Ground track

The orbit data is extracted from the following two-line orbital elements,

1 40908U 15049K   21332.91865868  .00001120  00000-0  63868-4 0  9991
2 40908  97.5114 330.7649 0015531 357.4619  64.4085 15.14732472342127
Epoch (UTC): 28 November 2021 22:02:52
Eccentricity: 0.0015531
inclination: 97.5114°
perigee height: 511 km
apogee height: 532 km
right ascension of ascending node: 330.7649°
argument of perigee: 357.4619°
revolutions per day: 15.14732472
mean anomaly at epoch: 64.4085°
orbit number at epoch: 34212

The dashed part of the orbit path shows where the satellite is in the earth's shadow,  

DLR